Date,TemperatureHighF,TemperatureAvgF,TemperatureLowF,DewpointHighF,DewpointAvgF,DewpointLowF,HumidityHigh,HumidityAvg,HumidityLow,PressureMaxIn,PressureMinIn,WindSpeedMaxMPH,WindSpeedAvgMPH,GustSpeedMaxMPH,PrecipitationSumIn
2013-1-1,43,38,34,38,35,32,93,91,82,29.96,29.32,6,2,19,0.01
2013-1-2,50,45,38,49,43,35,96,93,88,30.08,29.96,12,4,20,0.19
2013-1-3,51,50,48,49,47,44,94,91,88,30.42,30.07,11,2,21,0.00
2013-1-4,50,48,45,48,45,42,95,91,87,30.49,30.42,10,3,20,0.00
2013-1-5,49,46,41,46,43,39,96,91,85,30.47,30.31,20,5,28,0.01
2013-1-6,49,45,40,46,42,37,94,88,79,30.47,30.22,12,5,18,0.00
2013-1-7,49,48,46,47,45,43,95,91,87,30.21,30.03,10,5,16,0.22
2013-1-8,51,46,39,49,44,38,96,92,86,30.17,29.98,16,4,25,0.02
2013-1-9,45,39,37,41,37,35,96,93,87,30.18,30.08,8,2,14,0.01
2013-1-10,40,37,35,39,36,34,98,96,95,30.08,29.98,7,1,8,0.05
2013-1-11,39,36,34,37,35,32,98,94,92,30.06,30.00,7,2,12,0.01
2013-1-12,36,34,30,34,32,28,95,91,87,30.17,29.97,9,4,15,0.00
2013-1-13,35,33,31,33,31,29,95,91,85,30.18,30.01,10,4,17,0.00
2013-1-14,36,34,32,34,32,30,96,92,86,30.01,29.77,7,2,12,0.03
2013-1-15,36,29,20,33,27,19,96,93,88,29.96,29.86,4,1,7,0.01
2013-1-16,30,27,22,26,24,20,95,88,82,30.02,29.89,7,4,12,0.00
2013-1-17,33,30,28,27,24,22,89,81,71,30.05,29.85,15,8,30,0.00
2013-1-18,31,30,28,29,26,22,96,85,77,29.85,29.62,14,9,25,0.00
2013-1-19,34,31,26,31,28,23,96,90,82,29.78,29.63,8,4,17,0.02
2013-1-20,32,31,30,29,27,25,94,86,78,29.76,29.58,5,2,11,0.00
2013-1-21,32,31,31,31,30,27,97,94,83,29.58,29.52,11,5,24,0.00
2013-1-22,34,32,31,32,30,28,97,92,87,29.89,29.56,11,4,23,0.04
2013-1-23,34,32,29,31,30,26,93,90,85,30.01,29.89,7,2,12,0.02
2013-1-24,34,32,30,31,29,27,96,89,79,30.12,30.01,11,4,17,0.01
2013-1-25,34,32,31,32,29,26,94,88,80,30.01,29.43,16,11,27,0.01
2013-1-26,41,36,33,39,34,31,96,91,79,29.62,29.03,18,6,30,0.09
2013-1-27,47,40,36,44,36,32,97,88,81,29.23,28.82,20,8,31,0.05
2013-1-28,45,40,36,41,36,32,92,85,76,29.39,28.94,23,13,38,0.12
2013-1-29,51,44,42,48,40,36,94,86,77,29.38,28.99,22,8,36,0.15
2013-1-30,42,40,38,38,36,35,94,88,78,29.69,29.16,16,5,30,0.20
2013-1-31,42,39,36,39,36,34,96,90,81,29.71,29.26,17,6,29,0.29
2013-2-1,41,37,32,38,34,29,96,90,85,29.85,29.40,12,3,29,0.12
2013-2-2,38,34,30,31,28,26,90,81,64,30.23,29.85,10,2,15,0.00
2013-2-3,47,43,34,44,39,29,94,87,79,30.07,29.51,21,6,35,0.00
2013-2-4,47,36,30,45,33,28,96,91,81,29.59,29.36,5,2,22,0.11
2013-2-5,40,35,30,37,32,27,94,90,84,29.60,29.11,13,4,32,0.03
2013-2-6,38,35,32,34,30,26,91,80,72,30.16,29.59,10,4,19,0.01
2013-2-7,38,33,30,33,30,26,94,87,75,30.16,30.04,3,1,7,0.00
2013-2-8,42,37,32,35,33,31,96,86,69,30.20,30.10,5,1,11,0.04
2013-2-9,39,36,35,37,34,33,97,93,89,30.17,29.85,5,2,8,0.04
2013-2-10,37,35,33,34,32,30,93,90,83,29.85,29.45,13,6,26,0.04
2013-2-11,37,34,32,33,30,27,92,84,73,30.00,29.52,9,4,18,0.01
2013-2-12,34,33,32,30,29,27,89,83,79,30.15,30.00,5,2,10,0.00
2013-2-13,43,33,30,40,30,25,93,88,76,30.13,29.58,21,12,33,0.14
2013-2-14,47,42,40,42,39,37,92,89,81,29.86,29.60,14,4,19,0.01
2013-2-15,49,41,36,42,38,33,93,86,70,30.16,29.85,10,3,16,0.00
2013-2-16,47,41,35,43,38,32,93,90,85,30.17,30.13,7,4,12,0.00
2013-2-17,47,41,33,40,37,30,94,84,69,30.17,30.10,7,3,12,0.00
2013-2-18,49,37,32,37,31,24,91,79,53,30.16,30.12,6,3,10,0.00
2013-2-19,44,38,31,39,32,23,96,80,57,30.19,30.14,5,2,7,0.00
2013-2-20,39,36,32,37,33,26,97,88,81,30.36,30.19,10,5,20,0.00
2013-2-21,34,32,31,28,26,24,83,78,72,30.38,30.34,12,5,19,0.00
2013-2-22,34,32,31,28,26,23,87,77,71,30.37,30.33,5,1,12,0.00
2013-2-23,37,32,30,32,29,27,93,86,68,30.44,30.31,3,1,8,0.00
2013-2-24,36,32,28,34,31,26,97,95,91,30.54,30.43,1,0,4,0.20
2013-2-25,40,34,28,38,33,27,98,96,87,30.69,30.54,2,0,6,0.06
2013-2-26,43,35,30,40,34,29,98,95,88,30.74,30.68,3,1,7,0.01
2013-2-27,51,36,27,37,30,22,96,81,54,30.74,30.63,3,1,6,0.01
2013-2-28,49,38,30,41,35,28,97,89,73,30.63,30.55,4,1,6,0.00
2013-3-1,45,39,34,38,35,31,93,83,69,30.59,30.48,5,1,9,0.00
2013-3-2,52,42,32,43,38,31,96,85,67,30.48,30.30,8,2,11,0.00
2013-3-3,46,43,40,40,38,34,92,84,73,30.30,30.13,4,1,7,0.00
2013-3-4,41,38,32,36,34,30,90,83,78,30.13,29.79,7,4,11,0.00
2013-3-5,45,36,30,36,32,27,93,84,69,29.79,29.70,3,1,5,0.00
2013-3-6,39,37,34,36,35,32,96,92,87,29.77,29.71,5,2,11,0.03
2013-3-7,44,39,37,42,38,36,97,95,90,29.71,29.61,10,3,23,0.16
2013-3-8,38,37,36,36,35,34,96,94,90,29.77,29.61,10,5,21,0.02
2013-3-9,36,35,33,35,32,27,97,92,77,29.95,29.77,5,3,18,0.11
2013-3-10,35,31,24,30,26,21,93,82,70,30.16,29.94,10,3,22,0.01
2013-3-11,33,26,19,27,21,17,94,82,60,30.20,30.15,6,2,17,0.00
2013-3-12,39,32,22,32,26,19,88,79,65,30.18,29.95,6,2,9,0.05
2013-3-13,39,33,29,29,27,25,92,80,62,30.04,29.91,5,2,10,0.00
2013-3-14,41,35,29,36,31,24,91,85,79,30.04,29.65,12,4,18,0.00
2013-3-15,46,39,33,40,35,31,91,87,78,29.65,29.42,14,7,22,0.04
2013-3-16,35,33,31,33,32,30,97,95,89,29.43,29.24,8,2,11,0.37
2013-3-17,40,35,29,36,33,27,97,93,82,29.31,29.18,9,2,18,0.34
2013-3-18,38,34,30,36,32,29,97,94,89,29.55,29.31,9,4,24,0.11
2013-3-19,34,32,31,33,31,30,97,97,93,29.73,29.55,7,2,17,0.27
2013-3-20,35,32,29,31,29,26,93,88,79,30.12,29.73,7,4,16,0.19
2013-3-21,35,30,22,29,26,20,96,86,73,30.16,30.08,10,5,20,0.06
2013-3-22,33,32,30,30,28,27,91,86,81,30.10,30.02,13,10,28,0.00
2013-3-23,32,31,30,28,26,23,90,83,75,30.26,30.09,13,11,26,0.00
2013-3-24,33,31,30,27,25,23,83,79,70,30.36,30.25,13,8,24,0.00
2013-3-25,33,31,30,28,26,24,87,81,75,30.37,30.32,8,3,17,0.00
2013-3-26,35,31,28,30,26,22,90,80,69,30.32,30.22,8,2,18,0.00
2013-3-27,37,31,25,30,27,23,95,85,67,30.22,30.15,5,1,18,0.14
2013-3-28,37,32,25,29,26,23,95,82,65,30.17,30.10,6,1,14,0.07
2013-3-29,39,33,28,32,27,24,91,81,61,30.10,29.99,6,1,12,0.01
2013-3-30,38,31,24,33,27,21,95,88,79,30.08,30.01,3,1,5,0.04
2013-3-31,36,31,24,28,24,20,92,77,62,30.09,30.06,6,3,12,0.00
2013-4-1,38,32,23,28,25,20,89,75,63,30.15,30.07,7,2,15,0.00
2013-4-2,40,34,29,34,29,24,91,82,72,30.30,30.15,4,1,11,0.00
2013-4-3,42,34,25,33,29,23,94,80,64,30.37,30.30,4,1,10,0.01
2013-4-4,44,37,30,36,32,29,95,85,58,30.33,30.27,4,2,12,0.07
2013-4-5,40,36,30,35,30,27,94,81,67,30.31,30.26,5,2,11,0.00
2013-4-6,50,39,30,39,31,26,89,74,49,30.32,30.23,9,3,14,0.00
2013-4-7,42,36,31,36,32,28,90,84,73,30.24,30.04,9,3,13,0.00
2013-4-8,41,36,31,31,29,25,89,77,59,30.04,29.80,8,5,16,0.00
2013-4-9,41,35,29,33,29,24,92,77,61,29.80,29.73,7,2,14,0.00
2013-4-10,40,36,33,36,34,31,93,90,82,29.76,29.65,8,2,13,0.01
2013-4-11,42,38,34,37,34,31,93,86,76,29.65,29.46,9,5,17,0.00
2013-4-12,43,38,34,38,35,32,92,88,82,29.69,29.43,9,3,17,0.00
2013-4-13,53,45,38,45,39,36,94,81,57,29.80,29.48,19,7,32,0.00
2013-4-14,54,52,48,50,47,44,93,84,76,29.51,29.40,36,24,50,0.23
2013-4-15,54,49,46,48,44,42,91,82,70,29.79,29.44,33,16,48,0.03
2013-4-16,52,47,42,46,41,36,92,79,63,29.84,29.40,32,13,50,0.07
2013-4-17,55,46,39,50,42,34,96,85,77,29.88,29.14,28,15,43,0.16
2013-4-18,52,46,42,45,41,38,92,83,70,29.92,29.11,24,7,37,0.07
2013-4-19,55,45,37,40,36,33,92,71,46,30.45,29.92,7,2,13,0.00
2013-4-20,54,46,40,42,37,33,85,71,59,30.45,30.17,17,10,30,0.00
2013-4-21,53,46,40,45,40,36,91,79,59,30.18,29.86,19,7,27,0.02
2013-4-22,54,46,39,47,40,36,92,81,62,29.87,29.60,23,8,41,0.02
2013-4-23,55,47,42,44,41,38,93,78,59,30.08,29.73,6,2,18,0.04
2013-4-24,53,49,42,50,42,34,96,78,54,30.24,29.90,10,3,20,0.16
2013-4-25,51,43,38,42,37,33,91,80,65,30.23,30.04,6,2,16,0.03
2013-4-26,49,40,35,39,35,32,94,84,60,30.06,29.86,6,2,17,0.12
2013-4-27,49,42,36,36,33,27,94,72,44,30.16,29.99,6,3,15,0.04
2013-4-28,50,43,37,44,38,32,92,84,71,29.99,29.63,18,4,24,0.08
2013-4-29,54,44,37,39,36,33,90,73,50,30.12,29.63,6,3,18,0.00
2013-4-30,58,45,35,36,32,22,91,65,28,30.34,30.12,11,3,19,0.00
2013-5-1,55,46,41,45,36,30,87,70,48,30.30,30.13,17,7,25,0.01
2013-5-2,56,46,35,42,36,28,91,71,41,30.30,30.03,16,8,24,0.00
2013-5-3,52,49,42,48,44,39,92,85,78,30.04,29.69,20,10,33,0.09
2013-5-4,52,44,35,42,38,33,92,79,57,29.92,29.74,9,3,23,0.00
2013-5-5,63,53,47,52,47,40,89,80,65,30.06,29.92,16,8,23,0.00
2013-5-6,62,52,32,52,47,44,91,80,67,30.07,30.02,12,5,20,0.00
2013-5-7,68,55,41,50,43,38,89,66,44,30.09,29.90,10,5,18,0.00
2013-5-8,60,52,46,52,46,38,93,79,67,29.89,29.51,17,7,26,0.09
2013-5-9,53,47,42,43,41,37,94,80,61,29.57,29.36,13,7,24,0.04
2013-5-10,58,48,42,49,44,39,97,87,63,29.66,29.37,10,2,29,0.16
2013-5-11,50,45,40,45,41,36,91,85,77,29.75,29.50,14,5,24,0.02
2013-5-12,52,46,40,47,42,35,92,85,69,29.81,29.59,16,4,23,0.01
2013-5-13,50,41,36,41,37,34,92,84,64,29.64,29.48,10,4,25,0.11
2013-5-14,53,44,39,42,38,35,90,82,53,29.47,29.39,15,6,27,0.10
2013-5-15,49,42,34,43,38,32,96,89,77,29.45,29.32,7,3,13,0.11
2013-5-16,55,45,37,42,38,33,93,75,48,29.72,29.42,8,3,16,0.00
2013-5-17,58,47,32,43,40,34,96,73,51,29.89,29.73,4,2,9,0.00
2013-5-18,49,47,45,48,46,42,98,96,81,29.86,29.75,4,2,17,0.71
2013-5-19,53,49,45,52,48,44,98,98,98,30.00,29.84,2,0,6,0.02
2013-5-20,67,57,50,61,56,50,98,94,76,30.04,29.93,5,1,9,0.12
2013-5-21,59,52,44,50,47,43,98,85,68,30.10,30.03,5,1,8,0.00
2013-5-22,57,48,40,46,39,31,90,72,42,30.09,30.00,6,2,12,0.00
2013-5-23,49,42,37,37,34,32,84,72,61,30.02,29.91,7,4,15,0.00
2013-5-24,52,44,37,43,39,34,92,81,69,30.24,29.92,8,4,16,0.06
2013-5-25,64,52,35,46,40,31,89,64,43,30.24,30.13,5,2,12,0.00
2013-5-26,63,54,42,51,45,37,84,72,62,30.14,29.81,10,3,15,0.00
2013-5-27,51,49,45,45,43,39,89,81,76,29.78,29.46,17,13,28,0.00
2013-5-28,59,50,42,49,44,40,93,80,63,29.81,29.56,8,4,13,0.01
2013-5-29,57,51,44,54,48,42,97,89,79,29.93,29.81,2,1,5,0.01
2013-5-30,59,55,50,52,50,44,95,82,75,30.09,29.91,2,1,7,0.02
2013-5-31,68,58,48,55,49,40,94,73,58,30.18,30.08,3,1,8,0.00
2013-6-1,60,53,44,47,43,38,88,70,53,30.29,30.18,4,1,10,0.00
2013-6-2,59,53,39,46,42,37,92,69,50,30.46,30.31,5,1,12,0.00
2013-6-3,62,51,46,54,46,42,88,84,76,30.51,30.46,5,2,8,0.00
2013-6-4,68,54,45,53,47,44,97,79,55,30.51,30.33,2,1,9,0.00
2013-6-5,64,53,43,54,48,40,96,83,66,30.33,30.18,4,1,8,0.00
2013-6-6,66,55,48,54,48,39,90,77,44,30.27,30.20,6,2,11,0.00
2013-6-7,58,52,45,52,48,43,95,87,76,30.35,30.27,6,1,10,0.00
2013-6-8,69,57,41,55,48,39,96,73,50,30.35,30.14,4,1,8,0.11
2013-6-9,66,55,47,56,50,44,96,86,67,30.15,30.00,5,2,10,0.03
2013-6-10,58,52,46,52,48,44,94,87,73,30.04,29.93,5,2,9,0.00
2013-6-11,58,53,42,53,48,40,96,86,70,29.93,29.73,8,4,15,0.03
2013-6-12,64,56,50,57,51,46,94,84,67,29.73,29.59,8,3,16,0.04
2013-6-13,66,54,47,52,46,42,93,74,53,29.80,29.56,5,1,7,0.00
2013-6-14,64,54,45,51,46,42,93,76,59,29.83,29.60,16,6,24,0.07
2013-6-15,57,51,47,48,45,41,94,81,62,29.60,29.44,12,6,22,0.03
2013-6-16,64,55,46,54,49,45,95,82,66,30.01,29.58,4,1,8,0.01
2013-6-17,63,55,46,56,52,44,96,87,77,30.09,30.01,5,1,11,0.00
2013-6-18,69,59,52,57,52,49,92,78,61,30.06,29.93,6,2,13,0.00
2013-6-19,68,58,50,52,49,45,92,73,51,30.05,29.97,4,1,11,0.00
2013-6-20,74,60,48,57,50,40,92,72,31,30.05,29.81,9,4,18,0.04
2013-6-21,66,58,53,59,53,48,93,83,70,29.81,29.63,8,1,14,0.00
2013-6-22,63,54,49,53,49,46,96,84,63,29.63,29.32,13,6,22,0.26
2013-6-23,59,52,47,58,50,46,97,93,86,29.92,29.38,2,0,10,0.37
2013-6-24,59,52,46,49,46,43,93,80,64,30.27,29.93,3,0,6,0.01
2013-6-25,64,53,44,52,47,41,92,79,62,30.40,30.27,5,1,8,0.00
2013-6-26,65,55,47,52,48,46,95,78,55,30.44,30.40,4,1,8,0.00
2013-6-27,60,54,47,55,50,44,95,88,76,30.43,30.14,5,1,7,0.08
2013-6-28,63,55,48,58,52,43,97,90,79,30.14,29.90,3,1,14,0.18
2013-6-29,61,54,46,53,48,43,93,83,66,30.15,30.06,6,1,14,0.00
2013-6-30,65,56,49,56,52,46,92,84,72,30.11,29.85,9,2,25,0.01
2013-7-1,62,53,46,50,46,43,94,77,57,29.92,29.84,3,1,11,0.01
2013-7-2,56,52,46,52,48,42,94,87,75,29.90,29.46,14,6,25,0.06
2013-7-3,64,58,54,57,53,50,96,85,75,29.82,29.48,7,1,12,0.01
2013-7-4,62,57,51,61,53,47,96,86,75,30.16,29.74,15,4,20,0.22
2013-7-5,69,59,51,57,52,47,91,80,62,30.37,30.16,6,1,13,0.00
2013-7-6,74,62,48,58,52,46,96,72,46,30.38,30.31,8,3,17,0.00
2013-7-7,77,65,57,60,56,49,91,75,40,30.60,30.42,3,1,7,0.00
2013-7-8,77,68,52,65,60,51,98,77,63,30.63,30.49,3,1,6,0.00
2013-7-9,82,70,57,65,60,54,91,72,49,30.49,30.32,4,1,7,0.00
2013-7-10,68,60,52,60,55,50,95,86,70,30.41,30.35,2,1,5,0.00
2013-7-11,77,64,53,66,58,52,95,84,64,30.38,30.26,3,1,6,0.00
2013-7-12,82,70,60,67,61,57,94,73,50,30.27,30.20,3,1,8,0.00
2013-7-13,76,64,56,63,59,54,94,82,64,30.31,30.22,4,1,8,0.00
2013-7-14,74,62,54,56,52,47,96,73,50,30.31,30.17,2,1,9,0.00
2013-7-15,69,59,52,57,53,48,90,80,64,30.21,30.18,3,1,13,0.00
2013-7-16,76,66,58,62,58,53,90,75,61,30.25,30.18,3,1,10,0.00
2013-7-17,76,66,53,59,55,50,93,71,50,30.34,30.25,3,1,8,0.00
2013-7-18,82,70,59,66,60,54,90,73,54,30.38,30.33,3,1,7,0.00
2013-7-19,78,66,52,62,57,50,97,77,54,30.39,30.34,4,1,10,0.00
2013-7-20,71,60,49,62,55,47,97,85,69,30.37,30.28,4,2,10,0.00
2013-7-21,71,59,51,59,54,50,96,83,61,30.31,30.15,5,2,10,0.00
2013-7-22,70,61,57,62,58,55,96,89,73,30.16,30.00,3,1,8,0.00
2013-7-23,72,64,59,66,61,57,97,90,73,30.00,29.86,5,1,10,0.28
2013-7-24,72,65,58,64,60,56,97,84,65,29.90,29.87,5,1,10,0.01
2013-7-25,68,61,55,65,59,54,97,94,89,29.90,29.80,4,0,8,0.59
2013-7-26,76,63,55,62,57,52,98,83,58,29.85,29.82,7,2,12,0.00
2013-7-27,74,61,52,62,56,50,94,83,54,29.85,29.67,5,2,11,0.02
2013-7-28,62,58,54,60,56,52,97,94,85,29.67,29.51,5,1,11,1.41
2013-7-29,66,59,54,63,57,52,97,93,83,29.75,29.63,6,2,11,0.53
2013-7-30,68,58,51,58,53,50,97,86,64,29.80,29.75,5,2,11,0.12
2013-7-31,69,58,50,56,53,49,97,84,60,29.89,29.77,4,0,6,0.25
2013-8-1,70,64,56,65,60,54,97,90,79,29.77,29.62,13,5,21,0.14
2013-8-2,69,64,58,62,57,52,96,78,58,29.63,29.53,15,8,28,0.02
2013-8-3,66,59,53,54,52,50,91,78,62,29.85,29.58,11,5,23,0.00
2013-8-4,69,60,54,57,52,48,90,76,54,29.90,29.85,11,4,21,0.00
2013-8-5,60,56,50,57,54,48,96,92,83,29.89,29.75,3,0,6,0.11
2013-8-6,63,55,46,52,49,44,96,81,63,30.00,29.86,5,1,9,0.00
2013-8-7,68,58,48,55,50,45,93,79,54,30.07,29.98,4,1,6,0.07
2013-8-8,68,59,49,59,53,47,97,83,64,30.07,29.93,6,1,10,0.01
2013-8-9,68,59,53,58,53,48,94,81,64,30.11,29.88,6,2,10,0.00
2013-8-10,65,55,48,53,50,45,94,81,62,30.12,29.99,4,1,10,0.00
2013-8-11,64,54,48,54,50,46,95,85,60,29.99,29.86,2,1,9,0.09
2013-8-12,66,55,48,56,50,46,96,82,57,30.03,29.84,2,0,6,0.01
2013-8-13,64,56,45,52,48,43,94,77,55,30.16,30.03,3,0,7,0.00
2013-8-14,69,60,50,58,54,47,93,79,63,30.15,29.94,8,2,17,0.01
2013-8-15,68,62,58,63,59,55,94,89,78,29.94,29.75,6,2,15,0.18
2013-8-16,69,60,50,59,54,48,96,83,63,29.88,29.74,2,0,9,0.05
2013-8-17,70,59,52,61,55,47,95,85,68,29.86,29.41,16,4,27,0.22
2013-8-18,63,54,48,54,50,46,95,86,67,29.82,29.46,1,0,11,0.02
2013-8-19,65,56,48,55,50,46,94,82,65,30.18,29.82,1,0,9,0.00
2013-8-20,66,57,50,56,52,48,94,86,69,30.26,30.16,1,0,11,0.06
2013-8-21,71,62,56,62,57,54,92,84,68,30.16,30.04,3,0,15,0.01
2013-8-22,65,59,55,61,56,54,97,93,79,30.13,30.03,1,0,7,0.02
2013-8-23,70,62,53,62,58,51,96,87,72,30.03,29.88,8,1,16,0.00
2013-8-24,63,57,53,58,55,52,96,92,80,29.98,29.90,0,0,0,0.07
2013-8-25,69,59,52,61,56,51,96,89,76,30.18,29.98,4,0,7,0.00
2013-8-26,71,60,51,63,57,50,98,90,73,30.19,30.10,3,1,7,0.00
2013-8-27,70,59,51,61,55,49,97,87,68,30.21,30.07,6,1,10,0.00
2013-8-28,67,56,49,58,52,44,97,86,63,30.23,30.10,7,2,15,0.01
2013-8-29,65,58,49,58,54,44,93,85,76,30.10,30.01,5,1,10,0.00
2013-8-30,68,58,46,60,54,42,93,86,73,30.08,29.84,8,2,19,0.04
2013-8-31,63,52,45,50,45,40,91,76,48,30.26,30.08,5,1,10,0.00
2013-9-1,58,54,50,53,50,46,92,86,76,30.27,30.12,2,1,13,0.00
2013-9-2,68,60,56,60,57,53,94,89,76,30.25,30.09,3,1,10,0.00
2013-9-3,75,62,52,60,56,49,95,81,54,30.27,30.20,7,2,13,0.00
2013-9-4,72,59,51,55,49,40,94,71,46,30.20,29.93,11,5,17,0.00
2013-9-5,64,56,50,52,47,42,90,72,54,29.93,29.87,9,1,14,0.00
2013-9-6,52,49,46,49,46,42,96,90,76,29.93,29.87,4,2,12,0.87
2013-9-7,59,51,45,51,47,42,98,88,69,29.95,29.75,9,3,16,0.55
2013-9-8,60,50,41,48,44,39,94,80,60,30.01,29.94,6,3,12,0.00
2013-9-9,62,52,45,52,47,44,95,86,62,30.17,29.96,3,1,11,0.03
2013-9-10,64,53,46,52,48,44,96,82,61,30.25,30.17,3,1,11,0.00
2013-9-11,59,54,49,56,51,47,95,92,88,30.24,30.09,5,1,7,0.04
2013-9-12,69,59,52,58,55,50,97,87,59,30.10,29.89,8,2,14,0.01
2013-9-13,53,49,46,51,47,44,96,91,80,30.10,29.96,2,0,7,0.12
2013-9-14,60,50,43,48,45,42,96,83,58,30.08,29.95,5,1,8,0.00
2013-9-15,59,50,41,56,46,38,92,85,73,29.95,29.20,18,8,30,0.13
2013-9-16,55,46,39,47,41,37,94,85,70,29.35,29.28,4,1,13,0.00
2013-9-17,56,47,40,47,43,39,94,85,69,29.41,29.30,3,1,9,0.00
2013-9-18,58,47,40,48,42,38,96,84,64,29.75,29.41,4,1,8,0.01
2013-9-19,54,47,42,53,46,41,97,95,89,29.78,29.53,7,2,13,0.37
2013-9-20,59,51,43,52,47,42,98,87,72,30.05,29.78,7,2,15,0.01
2013-9-21,60,56,49,57,52,45,93,87,83,30.12,30.04,10,4,15,0.00
2013-9-22,68,61,56,60,56,53,93,85,73,30.30,30.12,6,1,17,0.00
2013-9-23,65,58,49,60,55,48,96,91,81,30.29,30.13,4,1,7,0.00
2013-9-24,59,56,55,57,55,53,97,94,88,30.13,29.97,4,1,8,0.00
2013-9-25,55,50,42,53,50,41,98,97,94,30.07,29.91,2,0,8,0.09
2013-9-26,57,49,42,49,46,40,97,87,71,30.14,30.07,7,2,16,0.01
2013-9-27,58,54,50,55,52,48,96,92,87,30.08,29.95,6,2,10,0.00
2013-9-28,65,55,48,56,50,46,96,83,54,29.95,29.88,6,2,11,0.00
2013-9-29,60,52,46,50,47,44,93,83,66,29.96,29.92,9,4,19,0.00
2013-9-30,56,51,48,50,47,45,92,85,73,29.94,29.85,8,4,16,0.00
2013-10-1,55,51,47,49,46,44,91,84,71,29.92,29.86,12,4,20,0.00
2013-10-2,56,54,51,54,50,46,94,89,84,29.89,29.79,10,6,24,0.02
2013-10-3,65,58,54,60,56,52,95,91,81,29.79,29.54,11,7,22,0.04
2013-10-4,66,58,51,63,56,50,96,93,87,29.82,29.54,8,2,14,0.08
2013-10-5,58,54,50,53,50,48,96,89,78,30.10,29.82,9,2,16,0.01
2013-10-6,61,58,55,57,54,51,93,87,79,30.11,30.04,13,6,17,0.00
2013-10-7,64,60,57,58,56,54,94,87,78,30.08,29.99,12,5,21,0.09
2013-10-8,59,54,49,56,52,45,97,92,85,30.16,29.99,8,2,14,0.01
2013-10-9,51,46,42,47,42,36,96,84,65,30.15,29.92,5,1,13,0.13
2013-10-10,48,44,39,39,37,33,87,77,65,30.44,30.16,6,2,13,0.00
2013-10-11,50,46,44,44,42,38,89,84,80,30.52,30.43,5,2,11,0.00
2013-10-12,51,48,44,48,45,42,96,90,84,30.49,30.29,2,1,11,0.00
2013-10-13,52,47,41,49,46,40,98,95,84,30.29,30.05,3,2,13,0.14
2013-10-14,56,48,43,51,46,42,98,91,73,30.05,29.94,3,1,14,0.02
2013-10-15,49,47,41,48,46,40,98,97,96,30.02,29.91,2,1,5,0.12
2013-10-16,50,46,41,47,44,40,97,94,88,30.00,29.58,7,2,17,0.69
2013-10-17,50,47,44,49,46,44,98,97,96,30.00,29.63,2,0,6,0.62
2013-10-18,53,48,44,51,47,43,97,94,90,30.02,29.72,8,4,16,0.12
2013-10-19,57,53,50,55,51,48,96,93,90,29.72,29.48,11,6,20,0.31
2013-10-20,58,52,50,54,50,48,95,91,83,29.50,29.44,8,4,15,0.01
2013-10-21,58,52,49,56,50,46,96,91,87,29.55,29.30,9,4,14,0.07
2013-10-22,58,56,54,57,53,51,95,89,82,29.30,29.12,13,8,21,0.43
2013-10-23,56,50,42,53,47,39,95,89,73,29.57,29.00,9,3,13,0.02
2013-10-24,53,46,42,48,43,39,95,89,78,29.93,29.57,5,1,11,0.00
2013-10-25,59,52,46,54,49,43,96,90,80,29.88,29.33,11,6,19,0.27
2013-10-26,54,50,45,51,47,41,95,88,74,29.45,29.16,17,5,29,0.01
2013-10-27,53,48,45,47,44,41,92,86,77,29.19,28.86,16,8,32,0.11
2013-10-28,53,46,43,46,43,40,94,90,77,29.35,28.91,12,2,19,0.02
2013-10-29,52,43,39,45,40,37,95,88,72,29.88,29.34,8,1,13,0.01
2013-10-30,51,45,39,49,42,37,95,90,78,29.95,29.62,19,6,31,0.03
2013-10-31,53,46,42,46,41,38,94,83,72,29.85,29.62,15,7,26,0.11
2013-11-1,51,44,40,43,39,37,91,83,74,29.63,29.58,12,4,28,0.00
2013-11-2,45,40,35,43,38,33,96,91,86,29.58,28.86,13,5,22,0.38
2013-11-3,50,41,34,41,37,32,96,87,67,29.30,28.93,2,1,11,0.05
2013-11-4,54,39,33,41,35,31,95,86,58,29.39,29.22,5,1,7,0.00
2013-11-5,43,36,32,40,34,29,94,91,86,29.35,29.20,6,1,12,0.02
2013-11-6,44,40,36,40,37,34,95,91,85,29.40,29.26,5,1,13,0.10
2013-11-7,48,42,35,40,37,34,95,85,71,29.50,29.40,18,6,28,0.00
2013-11-8,49,41,36,43,38,34,93,87,74,29.55,29.48,10,3,19,0.01
2013-11-9,43,36,31,40,34,30,96,92,84,29.66,29.51,7,2,14,0.00
2013-11-10,47,37,31,39,33,29,96,87,71,30.16,29.66,9,3,18,0.01
2013-11-11,54,47,38,52,43,34,94,88,82,30.07,29.83,13,7,22,0.05
2013-11-12,49,42,39,44,40,37,95,90,75,30.39,30.06,5,1,14,0.13
2013-11-13,47,44,39,43,39,37,95,85,71,30.41,29.83,17,7,28,0.00
2013-11-14,49,41,35,42,35,30,91,79,59,30.50,29.81,5,1,20,0.00
2013-11-15,48,45,37,46,42,33,96,91,85,30.50,30.37,7,2,16,0.00
2013-11-16,51,48,42,48,45,39,94,89,83,30.37,30.22,6,2,19,0.00
2013-11-17,50,41,34,44,38,32,98,91,74,30.38,29.94,5,2,9,0.05
2013-11-18,47,38,31,44,36,30,97,93,79,29.94,29.78,5,0,8,0.01
2013-11-19,41,33,26,36,29,25,95,85,63,30.04,29.64,14,3,27,0.01
2013-11-20,41,38,32,39,35,31,96,90,82,29.80,29.41,10,4,23,0.16
2013-11-21,38,34,29,33,31,27,95,86,81,30.19,29.80,8,2,18,0.00
2013-11-22,46,32,26,34,28,24,93,85,62,30.31,30.19,5,2,8,0.00
2013-11-23,50,38,35,41,34,31,93,88,67,30.47,30.30,4,2,7,0.00
2013-11-24,41,36,32,39,34,29,95,92,88,30.71,30.46,3,0,5,0.00
2013-11-25,42,36,30,37,33,28,94,89,80,30.75,30.70,4,2,6,0.00
2013-11-26,48,44,37,47,42,36,97,95,92,30.72,30.53,2,1,11,0.15
2013-11-27,52,47,44,48,45,43,97,93,85,30.55,30.49,5,1,12,0.00
2013-11-28,44,42,39,44,40,37,97,93,89,30.63,30.35,8,1,18,0.01
2013-11-29,45,41,37,44,37,32,95,87,77,30.35,30.09,5,2,23,0.10
2013-11-30,43,39,34,42,36,30,94,88,79,30.42,30.27,6,2,12,0.00
2013-12-1,49,42,36,45,40,34,97,93,85,30.61,30.38,7,2,12,0.01
2013-12-2,45,42,37,43,39,35,95,90,84,30.60,30.35,9,3,20,0.01
2013-12-3,48,45,39,45,42,38,96,90,85,30.35,30.12,10,5,18,0.12
2013-12-4,43,37,33,38,35,32,97,91,81,30.29,30.08,7,2,24,0.01
2013-12-5,44,36,29,42,33,25,96,91,79,30.14,29.42,13,5,48,0.33
2013-12-6,38,32,28,30,27,24,93,82,69,30.35,30.13,5,1,9,0.00
2013-12-7,46,40,31,44,39,30,97,95,91,30.25,29.97,7,3,19,0.01
2013-12-8,51,48,45,50,47,43,97,94,88,29.98,29.87,13,4,29,0.04
2013-12-9,51,49,47,49,46,40,96,89,78,30.21,29.97,12,6,26,0.00
2013-12-10,52,49,46,48,44,41,89,85,79,30.21,30.16,18,12,32,0.00
2013-12-11,52,48,41,48,42,33,91,82,53,30.25,30.02,18,9,26,0.00
2013-12-12,54,51,47,51,46,34,93,84,52,30.02,29.92,18,10,28,0.07
2013-12-13,55,50,40,50,46,35,94,87,78,29.94,29.72,18,9,27,0.00
2013-12-14,50,44,38,48,40,33,94,86,80,29.93,29.44,29,14,46,0.09
2013-12-15,50,44,39,46,40,33,95,85,71,29.87,29.53,25,10,42,0.26
2013-12-16,48,41,37,44,36,33,92,85,77,29.98,29.53,15,6,28,0.13
2013-12-17,44,39,36,36,34,32,89,82,72,30.10,29.78,17,10,27,0.00
2013-12-18,50,44,38,47,40,32,94,88,74,29.78,28.76,27,13,45,0.17
2013-12-19,43,37,33,35,32,30,95,81,74,29.50,28.86,24,13,37,0.06
2013-12-20,50,42,35,46,38,31,93,86,79,29.76,29.38,26,14,45,0.22
2013-12-21,49,42,33,44,38,32,95,84,72,29.51,29.28,23,13,35,0.60
2013-12-22,40,37,34,35,33,30,94,84,79,29.55,29.30,21,10,37,0.02
2013-12-23,48,40,34,44,36,30,97,87,80,29.53,28.34,22,13,36,0.38
2013-12-24,46,39,34,43,33,28,93,79,65,28.49,28.26,33,23,49,0.08
2013-12-25,43,40,38,36,34,32,81,77,72,29.08,28.48,21,12,36,0.00
2013-12-26,41,38,35,36,34,31,92,85,75,29.31,28.65,19,8,34,0.01
2013-12-27,44,41,34,40,38,33,96,89,84,28.74,28.19,25,19,46,0.54
2013-12-28,41,38,37,37,36,34,94,90,84,29.50,28.74,15,4,35,0.01
2013-12-29,42,39,36,39,36,32,95,90,82,29.82,29.50,17,5,29,0.01
2013-12-30,49,42,37,46,40,34,97,93,87,29.62,29.28,15,6,26,0.94
2013-12-31,43,40,38,41,37,34,92,88,82,29.61,29.26,14,9,24,0.03
2014-1-1,46,40,38,45,38,35,95,90,85,29.32,28.68,19,8,29,0.28
2014-1-2,44,41,40,41,38,36,93,89,83,29.16,28.72,17,7,30,0.09